DW2465 Weather Reports


Display with metric or nautical units.
time (UTC)temp
F
wind
direction
speed
MPH
gust
MPH
rain 1hr
in
rain 24hr
in
rain mn
in
humidity
%
barometer
mb
20260902090050 68 44 0.0 0.0 0.00 0.01 0.01 79 1009.2
20260902084549 68 26 0.0 0.0 0.00 0.01 0.01 79 1009.3
20260902083046 68 99 0.0 0.0 0.00 0.01 0.01 79 1009.5
20260902081513 68 61 0.0 0.0 0.00 0.01 0.01 82 1009.8
20260902080012 69 109 0.0 0.0 0.00 0.01 0.01 84 1010.6
20260902074508 69 78 0.0 0.0 0.00 0.01 0.01 85 1010.1
20260902073008 69 100 0.0 0.0 0.01 0.01 0.01 85 1010.4
20260902071507 69 40 0.0 0.0 0.01 0.01 0.01 83 1009.8
20260902070004 70 92 0.0 0.0 0.01 0.01 0.01 82 1010.8
20260902064600 70 141 0.0 0.0 0.01 0.01 0.01 81 1011.7
20260902063114 70 124 0.0 0.0 0.00 0.00 0.00 79 1012.0
20260902061557 70 5 0.0 0.0 0.00 0.00 0.00 77 1011.9
20260902060107 70 5 0.0 0.0 0.00 0.00 0.00 76 1011.6
20260902054524 71 5 0.0 0.0 0.00 0.00 0.00 75 1010.8
20260902053028 71 5 0.0 0.0 0.00 0.00 0.00 77 1011.0
20260902051528 71 5 0.0 0.0 0.00 0.00 0.00 76 1011.0
20260902050016 71 5 0.0 0.0 0.00 0.00 0.00 73 1011.6
20260902044515 72 5 0.0 0.0 0.00 0.00 0.00 72 1011.7
20260902043014 72 5 0.0 0.0 0.00 0.00 0.00 73 1011.1
20260902041559 72 5 0.0 0.0 0.00 0.00 0.00 72 1010.6
20260902040043 72 5 0.0 0.0 0.00 0.00 0.00 70 1010.7
20260902034548 73 355 0.0 0.0 0.00 0.00 0.00 70 1010.6
20260902033041 73 344 0.0 0.0 0.00 0.00 0.00 69 1010.7
20260902031541 73 323 0.0 0.0 0.00 0.00 0.00 69 1011.2
20260902030041 73 324 0.0 0.0 0.00 0.00 0.00 68 1011.4
20260902024509 74 324 0.0 0.0 0.00 0.00 0.00 67 1011.3
20260902023008 74 324 0.0 0.0 0.00 0.00 0.00 70 1011.0
20260902021507 75 323 0.0 0.0 0.00 0.00 0.00 68 1011.0
20260902020006 76 307 0.0 0.0 0.00 0.00 0.00 65 1011.0
20260902014512 76 296 0.0 0.0 0.00 0.00 0.00 66 1011.1
20260902013004 76 290 0.0 0.0 0.00 0.00 0.00 66 1011.0
20260902011504 76 290 0.0 0.0 0.00 0.00 0.00 66 1010.9
20260902010002 76 290 0.0 0.0 0.00 0.00 0.00 65 1010.9
20260902004603 77 288 0.0 0.0 0.00 0.00 0.00 66 1010.8
20260902004501 77 289 0.0 0.0 0.00 0.00 0.00 66 1010.9
20260902003133 78 289 0.0 0.0 0.00 0.00 0.00 64 1010.9
20260902001559 78 289 0.0 0.0 0.00 0.00 0.00 62 1010.8
20260902000100 79 289 0.0 0.0 0.00 0.00 0.00 60 1010.8
20260901234556 79 286 0.0 0.0 0.00 0.00 0.00 59 1011.0
20260901233056 79 285 0.0 0.0 0.00 0.00 0.00 59 1011.0
20260901231600 80 282 0.0 0.0 0.00 0.00 0.00 58 1011.1
20260901230053 80 281 0.0 0.0 0.00 0.00 0.00 58 1011.1
20260901224552 81 280 0.0 0.0 0.00 0.00 0.00 58 1011.1
20260901223051 82 280 0.0 0.0 0.00 0.00 0.00 54 1011.0
20260901221548 82 280 0.0 0.0 0.00 0.00 0.00 53 1010.9
20260901220048 82 277 0.0 0.0 0.00 0.00 0.00 55 1010.9
20260901214546 83 265 0.0 0.0 0.00 0.00 0.00 52 1011.0
20260901213046 83 263 0.0 0.0 0.00 0.00 0.00 49 1011.0
20260901211546 83 271 0.0 0.0 0.00 0.00 0.00 47 1010.8
20260901210015 83 278 0.0 0.0 0.00 0.00 0.00 49 1010.9
20260901204515 84 281 0.0 0.0 0.00 0.00 0.00 45 1010.8
20260901203044 84 281 0.0 0.0 0.00 0.00 0.00 41 1010.7
20260901201541 86 248 0.0 0.0 0.00 0.00 0.00 40 1011.2
20260901200010 86 244 0.0 0.0 0.00 0.00 0.00 45 1011.1
20260901194508 85 303 0.0 0.0 0.00 0.00 0.00 45 1011.4
20260901193005 84 259 0.0 0.0 0.00 0.00 0.00 46 1011.5
20260901191614 83 263 0.0 0.0 0.00 0.00 0.00 47 1011.5
20260901190134 83 327 0.0 0.0 0.00 0.00 0.00 48 1011.6
20260901184559 83 330 0.0 0.0 0.00 0.00 0.00 46 1011.5
20260901183059 83 325 0.0 0.0 0.00 0.00 0.00 49 1011.5
20260901181558 83 327 0.0 0.0 0.00 0.00 0.00 50 1011.6
20260901180055 83 258 0.0 0.0 0.00 0.00 0.00 51 1012.0
20260901174556 82 110 0.0 0.0 0.00 0.00 0.00 53 1012.3
20260901173051 82 154 0.0 0.0 0.00 0.00 0.00 55 1012.4
20260901171559 82 205 0.0 0.0 0.00 0.00 0.00 53 1012.5
20260901170045 81 350 0.0 0.0 0.00 0.00 0.00 57 1012.6
20260901164550 80 339 0.0 0.0 0.00 0.00 0.00 58 1012.5
20260901163100 79 300 0.0 0.0 0.00 0.00 0.00 60 1012.6
20260901161536 79 298 0.0 0.0 0.00 0.00 0.00 62 1012.5
20260901160033 77 321 0.0 0.0 0.00 0.00 0.00 64 1012.4
20260901154545 77 321 0.0 0.0 0.00 0.00 0.00 64 1012.4
20260901153036 76 311 0.0 0.0 0.00 0.00 0.00 66 1012.4
20260901151523 75 275 0.0 0.0 0.00 0.00 0.00 66 1012.5
20260901150021 75 266 0.0 0.0 0.00 0.00 0.00 67 1012.5
20260901144521 74 270 0.0 0.0 0.00 0.00 0.00 68 1012.5
20260901143045 73 264 0.0 0.0 0.00 0.00 0.00 75 1012.6
20260901141541 71 264 0.0 0.0 0.00 0.00 0.00 76 1012.7
20260901140035 70 242 0.0 0.0 0.00 0.00 0.00 79 1012.7
20260901134535 68 232 0.0 0.0 0.00 0.00 0.00 83 1012.7
20260901133035 67 236 0.0 0.0 0.00 0.00 0.00 88 1012.9
20260901131534 66 238 0.0 0.0 0.00 0.00 0.00 90 1012.8
20260901130029 66 248 0.0 0.0 0.00 0.00 0.00 91 1012.5
20260901124529 65 248 0.0 0.0 0.00 0.00 0.00 93 1012.5
20260901123028 64 257 0.0 0.0 0.00 0.00 0.00 94 1012.6
20260901121535 63 256 0.0 0.0 0.00 0.00 0.00 94 1012.3
20260901120023 63 249 0.0 0.0 0.00 0.00 0.00 93 1012.2
20260901114524 63 246 0.0 0.0 0.00 0.00 0.00 93 1012.1
20260901113021 63 244 0.0 0.0 0.00 0.00 0.00 93 1011.9
20260901111520 63 221 0.0 0.0 0.00 0.00 0.00 93 1011.9
20260901110015 64 283 0.0 0.0 0.00 0.00 0.00 93 1011.7
20260901104526 64 286 0.0 0.0 0.00 0.00 0.00 93 1011.7
20260901103017 64 290 0.0 0.0 0.00 0.00 0.00 93 1011.3
20260901101514 64 290 0.0 0.0 0.00 0.00 0.00 93 1011.3
20260901100011 64 290 0.0 0.0 0.00 0.00 0.00 93 1011.3
20260901094513 65 290 0.0 0.0 0.00 0.00 0.00 93 1011.1
20260901093007 65 290 0.0 0.0 0.00 0.00 0.00 93 1011.0
20260901091512 65 290 0.0 0.0 0.00 0.00 0.00 93 1010.9